TimeCDT,TemperatureF,Dew PointF,Humidity,Sea Level PressureIn,VisibilityMPH,Wind Direction,Wind SpeedMPH,Gust SpeedMPH,PrecipitationIn,Events,Conditions,WindDirDegrees,DateUTC
12:51 AM,64.0,55.9,75,29.88,10.0,NNE,6.9,-,N/A,,Overcast,20,2012-10-03 05:51:00
1:10 AM,64.4,55.4,73,29.89,10.0,NNE,8.1,-,N/A,,Overcast,30,2012-10-03 06:10:00
1:51 AM,64.0,57.0,78,29.88,10.0,NNE,5.8,-,N/A,,Overcast,30,2012-10-03 06:51:00
2:51 AM,64.9,55.9,73,29.86,10.0,ENE,6.9,-,N/A,,Overcast,60,2012-10-03 07:51:00
3:51 AM,64.0,55.9,75,29.88,10.0,East,9.2,-,N/A,,Overcast,100,2012-10-03 08:51:00
4:24 AM,62.6,55.4,77,29.89,5.0,East,4.6,-,N/A,,Haze,90,2012-10-03 09:24:00
4:51 AM,63.0,57.0,81,29.89,6.0,East,5.8,-,0.00,,Light Drizzle,100,2012-10-03 09:51:00
5:23 AM,62.6,57.2,82,29.91,2.0,SE,5.8,-,0.00,,Light Drizzle,130,2012-10-03 10:23:00
5:51 AM,62.1,59.0,90,29.90,2.0,SSE,3.5,-,0.00,,Light Drizzle,150,2012-10-03 10:51:00
5:56 AM,62.6,57.2,82,29.91,3.0,Calm,Calm,-,0.00,,Light Drizzle,0,2012-10-03 10:56:00
6:05 AM,62.6,57.2,82,29.91,3.0,SE,3.5,-,0.00,,Light Drizzle,130,2012-10-03 11:05:00
6:51 AM,62.1,57.9,86,29.91,4.0,South,4.6,-,0.00,,Overcast,170,2012-10-03 11:51:00
7:51 AM,62.1,57.0,84,29.93,5.0,South,4.6,-,N/A,,Haze,180,2012-10-03 12:51:00
8:18 AM,60.8,57.2,88,29.94,2.5,SSW,4.6,-,0.01,,Overcast,200,2012-10-03 13:18:00
8:37 AM,60.8,57.2,88,29.94,3.0,South,5.8,-,0.01,,Overcast,190,2012-10-03 13:37:00
8:51 AM,61.0,57.0,87,29.94,3.0,South,4.6,-,0.01,Rain,Light Rain,180,2012-10-03 13:51:00
9:06 AM,60.8,57.2,88,29.94,5.0,South,5.8,-,0.00,Rain,Light Rain,170,2012-10-03 14:06:00
9:46 AM,62.6,57.2,82,29.95,7.0,South,4.6,-,0.01,,Overcast,170,2012-10-03 14:46:00
9:51 AM,62.1,57.0,84,29.94,7.0,South,5.8,-,0.01,Rain,Light Rain,180,2012-10-03 14:51:00
10:51 AM,63.0,57.0,81,29.94,7.0,WSW,4.6,-,0.00,,Overcast,240,2012-10-03 15:51:00
11:51 AM,64.0,57.0,78,29.94,8.0,SW,5.8,-,N/A,,Overcast,220,2012-10-03 16:51:00
12:09 PM,64.4,57.2,77,29.95,10.0,South,4.6,-,N/A,,Overcast,180,2012-10-03 17:09:00
12:51 PM,64.0,55.9,75,29.94,10.0,Variable,6.9,-,N/A,,Overcast,0,2012-10-03 17:51:00
1:23 PM,66.2,57.2,73,29.93,10.0,SW,6.9,-,N/A,,Overcast,220,2012-10-03 18:23:00
1:51 PM,66.0,55.9,70,29.92,10.0,SW,6.9,-,N/A,,Overcast,220,2012-10-03 18:51:00
2:39 PM,66.2,55.4,68,29.93,10.0,West,5.8,-,N/A,,Mostly Cloudy,260,2012-10-03 19:39:00
2:51 PM,68.0,55.9,65,29.92,10.0,WSW,8.1,-,N/A,,Overcast,240,2012-10-03 19:51:00
3:51 PM,66.9,55.9,68,29.93,10.0,WSW,8.1,-,N/A,,Overcast,250,2012-10-03 20:51:00
4:51 PM,66.0,57.0,73,29.94,10.0,WSW,8.1,-,N/A,,Overcast,250,2012-10-03 21:51:00
5:51 PM,64.9,57.0,75,29.96,9.0,WSW,8.1,-,N/A,,Overcast,240,2012-10-03 22:51:00
6:04 PM,64.4,57.2,77,29.97,9.0,SW,6.9,-,N/A,,Overcast,220,2012-10-03 23:04:00
6:28 PM,64.4,57.2,77,29.98,9.0,SSW,8.1,-,N/A,,Overcast,210,2012-10-03 23:28:00
6:51 PM,64.0,59.0,84,29.97,3.0,SSW,11.5,-,0.00,Rain,Light Rain,210,2012-10-03 23:51:00
7:33 PM,62.6,59.0,88,29.99,4.0,SSW,6.9,-,0.01,,Overcast,210,2012-10-04 00:33:00
7:51 PM,63.0,59.0,87,29.99,6.0,SSW,10.4,-,0.01,,Overcast,210,2012-10-04 00:51:00
8:51 PM,63.0,57.0,81,30.00,9.0,SSW,8.1,-,N/A,,Overcast,200,2012-10-04 01:51:00
9:51 PM,62.6,55.4,77,30.02,10.0,SSW,5.8,-,N/A,,Overcast,210,2012-10-04 02:51:00
10:51 PM,63.0,55.9,78,30.02,9.0,SSW,6.9,-,N/A,,Overcast,210,2012-10-04 03:51:00
11:51 PM,63.0,55.9,78,30.02,9.0,SSW,8.1,-,N/A,,Overcast,210,2012-10-04 04:51:00